Starlink 6085

operational
NORAD ID: 57115 Int'l Des: 2023-090 Owner: SPXS Country: US Constellation: starlink
LEOCIRCULAR

Über Starlink 6085

Beschreibung wird geladen...

Live-Position

3D-Globus wird geladen...

Nächste Überflüge

Höhenverlauf

Altitude vs Time

uPlot chart will show altitude changes over time

Zweizeiliger Elementsatz

1 57115U 23090Q 26036.43882575 .00030605 00000-0 17710-2 0 9994
2 57115 42.9998 81.2846 0016371 351.5833 8.4736 15.11603751145667
Epoch: 5. Feb. 2026 • Age: 31 hours

Aktueller Status

Höhe 542.9 km
Geschwindigkeit 7.59 km/s
Subsatellitenpunkt -5.51°S, 139.14°W
Startdatum 23. Juni 2023
Alter 2.6 years
Typ internet

Technische Details

Klassifizierung Payload
Masse 305.00 kg
Trockenmasse 290.00 kg
Gesamtmasse 305.00 kg
Länge 0.20 m
Durchmesser 2.80 m
Spannweite 9.00 m
Form Box + pan
Hersteller SPXS
Bus-Typ Starlink
Phasenstatus In Orbit
Besitzer/Staat SPXS/US

Große Konstellationen

Loading constellations...